Search your local weather  

 

Hazardous Weather Conditions

Flood Watch issued July 15 at 1:03PM CDT until July 17 at 7:00PM CDT
Flood Watch issued July 15 at 8:27PM CDT until July 18 at 7:00AM CDT
Flood Warning issued July 16 at 5:35AM CDT until July 18 at 7:00AM CDT
Flood Warning issued July 16 at 5:39AM CDT until July 19 at 7:00PM CDT
Flood Warning issued July 16 at 9:24AM CDT until July 19 at 7:00PM CDT
Flood Warning issued July 16 at 9:24AM CDT until July 18 at 7:00AM CDT
Flood Warning issued July 16 at 8:39PM CDT until July 18 at 9:00PM CDT
Flood Warning issued July 16 at 8:39PM CDT until July 18 at 11:00AM CDT
Flood Warning issued July 17 at 9:37AM CDT until July 20 at 4:00AM CDT
Flood Warning issued July 17 at 9:37AM CDT until July 19 at 7:00PM CDT

Current Conditions: CHICAGO, ILLINOIS

Clear


80.1 F

Last Updated on Jul 17 2024, 12:52 PM CDT
Humidity: 45%
Wind Speed: mph
Barometer: 29.99 in
Dewpoint: 57.0 F
Visibility: 10.00 mi
Precip: --
Heat Index: 79.9 F
Wind Chill: NA
Current conditions at:

PALWAUKEE (KPWK)

Lat: 42.12 Lon: -87.92

active severe weather and emergency alerts image weather storm and storm spotter reports image weather observation monitoring service image
Active
Alerts
Storm Reports Weather
Monitoring

5 Day Forecast for CHICAGO, ILLINOIS (60601)

Wednesday

Slight Chance of Showers
High 79 °F
Wednesday
Night
Slight Chance of Showers
Low 65 °F
Thursday

Partly Sunny

High 72 °F
Thursday
Night
Mostly Clear

Low 63 °F
Friday

Mostly Sunny

High 77 °F
Friday
Night
Partly Cloudy

Low 65 °F
Saturday

Partly Sunny

High 78 °F
Saturday
Night
Mostly Cloudy

Low 68 °F
Sunday

Mostly Cloudy

High 78 °F

Sign-up For Email & Text Message Weather Alert Notification Services



Advertise Here

Observation History for CHICAGO, ILLINOIS


Time Wind
(mph)
Vis
(mi)
Weather Precip (in) Temperature (F) Relative
Humidity
Wind
Chill
(F)
Heat
Index
(F)
Pressure
Air Dwpt altimeter
(in)
sea level
(mb)
12:52 PM CDT 10.00 Clear -- 80.1 57.0 45% NA 79.9 29.99 1015.6
11:52 AM CDT 10.00 Clear -- 80.1 57.0 45% NA 79.9 29.99 1015.6
09:52 AM CDT 9.2 10.00 Clear -- 77.0 59.0 54% NA 77.0 29.96 1014.6
08:52 AM CDT 8.1 10.00 Clear -- 75.9 63.0 64% NA 76.3 29.96 1014.6
07:52 AM CDT 8.1 10.00 Clear -- 72.0 63.0 73% NA 72.3 29.95 1014.2
06:52 AM CDT 4.7 10.00 Clear -- 70.0 64.0 81% NA NA 29.94 1013.9
05:52 AM CDT 4.7 10.00 Clear -- 68.0 64.9 90% NA NA 29.94 1013.6
04:52 AM CDT 5.8 10.00 Clear -- 70.0 66.9 90% NA NA 29.91 1012.9
03:52 AM CDT 3.4 8.00 Partly Cloudy -- 71.1 70.0 96% NA 72.3 29.89 1012.2
02:52 AM CDT 3.4 6.00 Fog/Mist -- 72.0 71.1 97% NA 73.4 29.89 1012.2
01:52 AM CDT 0.0 7.00 Mostly Cloudy -- 73.0 71.1 94% NA 74.5 29.89 1012.2
12:52 AM CDT 0.0 7.00 Mostly Clear -- 73.0 72.0 96% NA 74.7 29.90 1012.5
11:52 PM CDT 0.0 8.00 Partly Cloudy -- 73.0 72.0 96% NA 74.7 29.91 1012.9
10:52 PM CDT E 3.4 8.00 Mostly Clear -- 73.9 72.0 94% NA 75.4 29.88 1011.9
09:52 PM CDT 0.0 10.00 Clear -- 73.9 71.1 91% NA 75.4 29.87 1011.5
08:52 PM CDT 0.0 10.00 Clear -- 75.0 72.0 90% NA 76.5 29.85 1010.8
07:52 PM CDT NE 5.8 8.00 Clear -- 75.0 73.0 94% NA 76.6 29.84 1010.5
06:52 PM CDT 5.8 10.00 Cloudy 00.35 73.9 72.0 94% NA 75.4 29.84 1010.5
06:39 PM CDT S 6.9 6.00 Thunderstorms and Rain and Fog/Mist 00.35 73.9 73.0 97% NA 75.6 29.85 1010.8
06:32 PM CDT 3.4 2.50 Heavy Thunderstorms and Heavy Rain and Fog/Mist 00.35 75.0 73.0 94% NA 76.6 29.84 1010.5
06:24 PM CDT E 6.9 1.50 Rain and Fog/Mist 00.30 75.0 73.0 94% NA 76.6 29.84 1010.5
06:13 PM CDT S 3.4 0.75 Rain and Fog/Mist 00.18 75.9 73.0 91% NA 77.5 29.84 1010.5
05:52 PM CDT 9.2 10.00 Cloudy -- 77.0 71.1 82% NA 78.3 29.82 1009.8
04:52 PM CDT W 9.2 10.00 Mostly Cloudy -- 84.9 69.1 59% NA 88.9 29.81 1009.5

Regional Weather Observation

PALWAUKEE (KPWK)

Clear
80.1 F